Wetbulb
58.01 58.00 58.67 59.55 60.34 61.28 62.01 62.55 62.59 62.82 62.20 60.38 59.35 58.52 57.32 57.15 56.58 55.54 55.13 55.07 54.43 54.20 53.61 53.07 54.74 53.61 47.47 40.18 39.84 49.25 55.33 52.99 50.59 50.57 46.39 43.61 41.30 40.13 36.32 39.46 40.82 40.82 42.64 46.23 48.39 50.48 51.36
55.67 55.78 56.14 57.42 58.22 58.99 60.73 60.94 61.65 62.27 62.81 60.83 59.84 58.38 57.24 56.67 56.26 54.74 54.26 54.42 54.26 54.02 52.49 52.53 54.21 52.72 43.86 34.18 44.55 48.54 50.87 47.58 47.46 48.15 45.63 44.78 42.21 42.99 39.64 38.09 39.05 41.57 42.76 44.05 48.22 48.44 50.53
54.59 54.76 55.11 55.47 56.38 57.55 57.91 58.83 60.03 60.60 62.15 61.78 60.39 58.27 57.20 55.97 55.70 54.49 53.48 53.61 53.39 53.04 52.08 51.93 53.39 50.46 43.06 38.83 46.04 47.65 47.54 46.23 47.24 46.61 44.32 45.44 45.39 41.69 41.24 37.98 41.25 41.86 40.00 42.35 45.10 47.33 47.78
53.65 53.71 53.86 54.22 54.23 55.26 57.07 57.98 57.94 58.90 60.23 61.84 60.57 58.09 56.60 55.59 54.63 53.38 53.01 52.85 52.71 52.48 51.99 51.94 53.23 47.41 36.88 47.56 46.41 46.02 46.70 45.04 47.08 47.66 47.25 47.16 46.97 42.63 40.68 42.30 41.23 38.71 40.55 34.70 42.92 46.03 48.22
53.56 53.92 53.93 53.55 53.89 54.35 55.08 57.42 58.21 58.03 59.36 60.80 59.07 57.87 55.98 55.15 53.86 52.96 52.66 52.09 52.02 51.82 51.69 51.85 47.68 42.25 36.27 49.53 45.12 46.63 45.33 43.64 45.47 46.88 47.29 47.69 45.22 41.44 40.25 34.76 34.97 36.32 33.36 33.92 39.82 46.58 46.72
53.65 54.17 53.66 53.73 53.69 54.30 54.78 55.34 55.67 56.88 57.37 59.35 58.45 56.93 55.16 54.31 53.17 52.26 51.34 51.52 51.17 50.47 49.39 49.74 48.06 40.20 41.86 39.38 44.53 45.87 46.61 47.20 43.93 43.54 42.46 41.94 39.68 34.75 36.65 34.11 28.49 31.12 31.66 35.01 37.34 43.08 44.73
52.30 52.95 53.54 53.27 53.25 53.50 54.02 54.46 54.21 54.77 57.20 57.89 58.28 55.76 54.48 53.58 52.26 51.63 48.52 43.62 41.73 39.39 42.60 38.08 39.09 39.08 40.73 44.91 47.43 44.48 47.50 44.64 42.99 40.75 34.28 38.54 33.59 29.89 33.53 35.99 37.41 35.42 34.04 34.77 39.25 44.30 42.80
51.63 51.71 52.45 52.77 52.59 53.02 53.05 53.14 53.82 54.15 55.89 57.16 57.74 54.85 54.12 52.90 51.52 50.60 45.67 39.63 40.77 40.95 33.96 41.77 42.49 42.14 43.84 44.96 40.08 43.26 47.33 38.57 37.94 31.33 35.85 33.47 30.07 34.53 38.04 37.92 38.00 36.52 34.14 35.85 38.52 42.39 42.70
51.09 50.87 51.28 51.18 52.34 52.25 52.30 52.56 52.81 53.26 54.96 56.94 56.55 54.44 53.48 52.12 50.64 48.39 42.70 41.84 46.43 44.35 33.22 38.56 42.15 41.21 42.33 43.97 40.46 40.39 43.95 40.55 35.15 32.76 33.59 31.08 33.41 37.27 37.70 36.69 35.83 36.20 33.86 36.23 36.87 38.73 40.49
50.69 50.76 50.95 51.46 51.96 51.55 51.44 51.81 52.31 52.97 54.28 55.85 55.79 53.98 52.52 51.14 45.32 44.97 41.62 45.84 46.34 43.61 22.09 33.37 38.07 41.43 43.70 44.99 39.03 44.78 45.22 40.94 38.36 33.11 34.07 34.57 37.41 36.18 36.12 34.63 36.51 32.82 38.66 39.81 38.57 36.30 33.36
50.09 50.03 50.44 50.44 50.20 50.39 50.95 50.91 51.88 52.70 53.86 55.05 55.17 53.32 52.28 50.87 44.12 42.50 45.53 46.34 45.56 38.79 10.24 34.81 37.56 46.48 45.03 40.75 40.29 41.25 46.67 41.65 34.65 35.68 35.52 33.57 36.51 36.73 33.97 35.33 39.55 34.89 41.07 38.16 37.46 34.56 35.20
49.61 49.59 49.33 49.73 49.84 50.30 50.40 50.83 50.57 52.11 52.74 52.41 53.88 52.84 51.45 48.60 45.86 46.31 46.53 45.91 41.51 22.66 10.66 32.77 38.28 36.82 37.93 40.36 39.98 41.86 40.95 43.36 41.02 35.58 35.21 36.67 41.92 39.37 38.56 40.52 40.68 41.80 39.88 38.29 37.75 34.46 28.08
49.31 48.86 48.77 49.09 49.22 50.16 49.91 50.33 50.85 51.30 51.96 52.43 53.32 52.17 49.88 48.29 41.79 46.51 46.23 40.33 24.53 13.45 31.16 32.76 33.30 35.32 35.61 35.81 37.65 38.20 38.45 36.82 35.28 30.54 31.12 36.86 38.26 42.25 41.68 38.65 41.11 39.51 35.51 28.72 26.67 26.52 26.33
49.02 48.78 48.71 48.57 48.92 50.02 49.97 49.82 50.73 50.50 51.32 52.48 52.54 51.74 50.22 47.06 47.38 46.78 42.80 33.51 14.65 25.26 31.19 37.86 35.94 35.76 31.85 34.74 34.51 36.77 34.94 34.03 38.26 36.44 33.33 30.06 28.67 37.61 41.65 36.22 34.48 34.11 32.80 28.16 22.74 22.61 24.66
48.74 48.64 48.84 48.59 48.95 49.32 49.27 49.45 49.96 50.85 51.32 53.24 51.62 48.14 46.24 47.45 47.64 45.39 36.63 27.55 21.40 27.03 37.24 35.29 35.28 27.85 25.91 32.41 33.70 33.40 34.53 34.77 37.33 38.52 31.72 30.77 31.65 39.14 40.28 38.89 37.50 33.08 29.06 33.38 27.01 26.97 25.78
48.50 48.78 48.91 48.63 49.07 49.13 48.95 49.12 49.60 50.52 53.68 51.13 46.40 44.91 45.05 48.44 47.62 41.98 32.66 28.28 29.89 36.50 39.06 38.48 31.21 31.71 25.52 28.24 28.90 29.71 31.08 35.26 36.37 38.93 39.05 34.69 30.55 36.83 38.36 39.68 38.88 35.69 35.96 27.52 26.21 21.86 20.80
48.72 48.93 48.98 48.80 48.55 48.59 48.85 48.96 49.30 50.19 51.22 51.11 45.61 40.80 45.82 47.92 46.16 38.62 30.19 27.31 34.22 41.00 40.89 37.42 32.97 31.94 29.77 28.68 31.09 30.48 29.66 33.98 37.91 37.08 38.03 34.15 30.96 31.80 34.77 34.06 31.51 33.09 32.63 31.77 29.60 26.26 21.33
48.79 49.22 48.81 48.75 48.45 48.28 48.73 48.69 49.35 49.46 50.90 49.34 44.05 35.60 46.46 46.67 37.23 34.26 27.50 34.78 39.98 38.92 39.46 38.96 37.80 34.18 30.52 32.08 32.43 29.23 29.73 32.85 39.24 37.51 33.30 34.73 30.39 28.60 30.77 35.34 37.03 35.15 32.34 29.88 23.34 22.93 22.94
48.78 49.03 48.91 48.61 48.69 48.31 48.43 48.91 48.58 49.36 51.19 46.57 40.70 40.20 47.10 45.31 29.92 29.58 35.37 35.91 39.57 38.85 38.87 38.10 37.28 37.92 36.59 33.28 29.88 31.44 33.10 38.84 39.72 37.45 32.80 33.89 27.60 18.16 23.92 29.56 33.66 32.73 34.37 33.51 30.85 27.28 22.16
48.89 48.62 48.63 48.55 48.88 48.87 48.77 48.22 48.60 49.56 51.51 47.08 40.65 33.62 40.90 42.61 37.01 31.19 34.05 35.87 36.99 41.37 39.37 38.55 36.60 37.07 35.99 33.28 34.87 31.66 32.53 38.70 39.89 38.57 43.09 39.36 29.80 25.33 20.96 25.28 29.81 29.34 33.12 33.77 30.47 21.64 25.37
48.51 48.56 48.60 48.99 48.83 48.84 48.06 48.75 48.62 49.28 51.56 47.75 40.15 35.22 37.61 32.66 33.94 33.20 36.76 37.40 36.10 35.53 39.20 36.90 34.58 35.65 34.29 32.44 32.81 31.72 34.53 35.71 38.48 40.42 37.33 34.67 26.38 25.58 29.75 31.65 31.81 31.08 31.40 32.77 27.68 29.05 25.55
48.39 48.46 48.84 48.80 49.10 48.22 49.14 48.61 48.96 49.83 51.47 45.60 37.86 35.06 35.41 31.14 33.67 33.66 36.20 35.88 35.50 36.15 34.83 33.55 33.66 35.43 35.29 32.36 31.93 31.72 35.25 33.64 31.94 35.86 33.72 33.91 24.13 26.68 24.01 29.39 29.13 29.37 30.41 32.65 33.01 31.96 31.31
48.77 48.59 48.51 48.64 48.65 48.59 48.90 49.51 49.72 51.49 50.79 43.30 40.94 39.70 34.87 34.83 30.52 34.32 34.86 34.77 36.15 36.72 36.80 37.02 36.57 34.65 33.35 33.91 34.68 34.59 37.76 36.97 35.83 34.05 33.25 31.48 26.37 22.57 21.01 26.48 26.92 23.33 26.80 30.05 31.54 33.29 33.45
49.18 48.49 48.53 48.97 48.45 50.11 51.36 50.72 52.53 51.54 47.35 43.34 39.82 36.99 32.59 29.83 30.49 35.12 36.60 36.81 37.07 35.83 34.98 35.37 36.67 34.95 36.50 37.97 37.16 39.38 38.65 35.79 35.86 34.59 36.14 30.66 27.93 24.39 18.02 23.13 15.66 26.50 30.17 31.97 31.76 31.98 32.54
48.75 48.64 49.51 49.05 50.01 51.51 51.01 52.27 51.81 49.38 46.79 42.25 38.82 35.55 32.64 28.32 31.14 35.65 36.29 36.55 36.94 35.62 34.42 34.75 35.54 36.36 38.50 36.20 32.40 30.88 29.94 30.47 32.04 34.70 34.66 34.07 29.99 24.49 19.30 18.04 24.27 26.82 30.25 31.12 30.01 29.16 31.13
48.77 49.67 48.78 48.25 50.85 51.72 51.09 51.41 51.93 49.98 46.93 41.17 38.13 36.99 33.63 32.20 27.46 29.28 32.60 36.58 34.29 32.73 31.79 34.62 37.85 38.90 38.71 34.36 30.77 24.05 22.71 25.01 25.44 28.77 35.40 34.69 31.92 26.84 24.23 19.44 18.98 26.33 31.30 34.12 33.61 25.44 30.76
48.44 48.68 48.06 48.25 51.59 50.95 50.63 50.65 50.46 51.08 46.31 42.03 38.26 37.37 33.11 28.28 28.25 29.61 30.79 34.15 34.72 32.42 30.16 31.89 33.36 35.90 36.76 30.81 28.74 25.07 22.75 28.25 24.20 24.56 24.81 29.92 30.72 28.01 24.15 19.81 24.85 29.60 32.91 33.98 23.23 24.80 30.65
48.33 48.50 47.92 48.12 50.71 50.51 50.26 50.06 50.35 49.51 46.20 42.13 37.44 37.47 33.50 28.92 30.03 31.95 32.38 29.77 31.83 32.66 30.94 32.26 33.37 34.18 32.93 29.57 28.49 27.40 25.44 26.30 24.06 25.51 25.35 26.16 23.46 23.13 25.11 24.88 20.35 31.21 32.22 27.80 29.03 30.16 31.51
48.18 48.20 47.67 47.73 50.66 50.22 49.09 48.52 48.45 48.50 46.17 43.53 35.68 38.36 37.52 31.92 30.28 33.46 33.14 33.92 33.69 32.67 32.39 31.18 30.98 31.96 33.20 30.15 29.05 28.57 27.74 25.70 24.54 22.64 26.60 25.35 27.95 26.21 26.85 26.36 29.31 29.74 29.80 30.80 31.45 30.94 30.21
MSLP
1021.87 1021.47 1020.75 1020.13 1019.55 1018.91 1018.28 1017.76 1017.46 1017.18 1016.94 1016.78 1016.95 1017.15 1017.29 1017.22 1017.11 1017.05 1016.88 1016.90 1016.87 1016.75 1016.67 1016.56 1016.54 1016.52 1016.82 1016.93 1015.75 1014.57 1014.40 1014.52 1014.76 1015.03 1015.40 1015.64 1015.85 1015.85 1015.44 1015.07 1014.87 1013.97 1013.10 1012.34 1011.78 1010.88 1010.62
1021.75 1021.37 1020.67 1020.00 1019.44 1018.95 1018.31 1017.60 1016.96 1016.56 1016.19 1015.95 1016.06 1016.62 1016.54 1016.65 1016.54 1016.26 1016.40 1016.54 1016.50 1016.50 1016.49 1016.42 1016.31 1016.38 1016.87 1016.59 1014.77 1014.41 1014.45 1014.75 1014.73 1015.02 1015.34 1015.54 1015.66 1015.70 1015.42 1015.01 1014.79 1013.43 1013.25 1012.50 1011.68 1011.16 1010.50
1021.69 1021.37 1020.44 1019.84 1019.37 1018.74 1018.13 1017.62 1016.79 1016.37 1015.75 1015.23 1015.26 1015.59 1016.04 1016.15 1016.31 1016.54 1015.96 1016.07 1016.14 1016.31 1016.28 1016.31 1016.19 1016.27 1016.59 1015.70 1014.47 1014.38 1014.63 1014.59 1014.49 1014.72 1015.16 1015.40 1015.52 1015.76 1015.19 1014.79 1014.21 1014.04 1013.09 1012.38 1012.08 1011.70 1010.88
1021.44 1021.13 1020.41 1019.74 1019.28 1018.61 1018.13 1017.17 1016.58 1016.21 1015.38 1014.83 1014.68 1015.42 1015.64 1016.08 1015.88 1015.73 1016.38 1015.83 1015.86 1016.05 1016.14 1016.09 1016.12 1016.34 1016.06 1014.56 1014.45 1014.65 1014.44 1014.34 1014.26 1014.29 1014.58 1015.07 1015.43 1015.65 1015.55 1014.46 1014.19 1013.63 1013.02 1012.33 1011.59 1011.76 1011.10
1021.36 1020.92 1020.30 1019.52 1018.95 1018.30 1017.61 1016.91 1016.19 1015.70 1015.19 1014.25 1014.28 1014.72 1015.21 1015.60 1015.67 1015.73 1016.13 1015.67 1015.66 1015.70 1015.78 1015.87 1016.28 1016.39 1015.39 1014.19 1014.23 1013.83 1013.90 1014.01 1014.01 1014.15 1014.44 1015.12 1015.37 1015.07 1014.94 1014.36 1012.82 1012.90 1012.04 1011.47 1011.50 1011.27 1011.47
1021.22 1020.59 1020.06 1019.28 1018.56 1018.00 1017.36 1016.70 1016.27 1015.53 1014.80 1014.48 1013.75 1014.18 1014.86 1015.16 1015.47 1015.51 1015.78 1015.49 1015.29 1015.59 1015.85 1015.91 1016.17 1016.65 1015.00 1014.04 1013.65 1013.56 1013.63 1013.94 1014.25 1014.40 1014.93 1015.25 1015.26 1014.97 1014.20 1013.05 1011.67 1011.72 1011.99 1011.51 1011.29 1011.27 1011.81
1020.82 1020.43 1019.73 1019.07 1018.51 1017.91 1017.31 1016.61 1016.08 1015.44 1014.55 1014.15 1013.56 1013.67 1014.29 1014.78 1015.18 1015.20 1015.83 1015.75 1015.76 1016.18 1015.87 1015.31 1015.05 1014.66 1014.13 1013.65 1013.49 1013.51 1013.59 1014.14 1014.54 1014.87 1014.95 1014.94 1015.15 1014.27 1013.20 1012.98 1011.91 1011.22 1011.74 1011.52 1011.77 1011.95 1012.03
1020.63 1020.13 1019.55 1018.90 1018.28 1017.72 1017.08 1016.65 1015.68 1015.10 1014.26 1013.53 1013.13 1013.52 1013.66 1014.50 1014.95 1015.00 1015.51 1015.70 1014.77 1015.18 1015.26 1014.70 1014.67 1014.41 1013.93 1013.79 1013.73 1013.50 1013.66 1014.33 1014.69 1014.99 1014.89 1015.27 1014.29 1013.59 1012.88 1012.34 1011.82 1011.33 1011.65 1011.86 1012.59 1012.49 1012.73
1020.38 1019.77 1019.25 1018.66 1018.08 1017.44 1016.88 1016.33 1015.50 1014.83 1014.09 1013.27 1012.65 1013.28 1013.73 1014.07 1014.71 1014.94 1015.15 1015.24 1014.44 1014.87 1015.30 1014.33 1014.07 1013.78 1013.61 1013.89 1013.82 1013.61 1013.80 1014.09 1014.55 1014.58 1014.32 1014.31 1013.27 1012.94 1012.26 1012.08 1011.87 1011.58 1011.40 1011.62 1012.03 1012.75 1013.30
1019.63 1019.04 1018.63 1017.88 1017.20 1016.78 1016.49 1016.07 1015.27 1014.42 1013.72 1012.96 1012.62 1012.99 1013.50 1013.94 1015.19 1014.52 1014.64 1014.38 1014.37 1014.89 1015.37 1014.29 1013.61 1013.11 1013.29 1013.39 1013.61 1013.49 1013.63 1014.07 1014.31 1014.10 1013.99 1013.66 1012.94 1012.56 1012.08 1011.81 1011.82 1011.67 1011.55 1011.38 1012.52 1013.57 1013.52
1019.40 1019.09 1018.84 1018.39 1017.75 1017.12 1016.40 1015.62 1014.93 1014.10 1013.28 1012.48 1011.89 1012.54 1012.95 1013.24 1014.13 1014.03 1013.70 1014.18 1014.39 1015.07 1015.35 1013.81 1013.17 1012.59 1012.83 1013.27 1013.37 1013.51 1013.78 1014.01 1013.81 1013.69 1013.79 1012.98 1012.19 1011.66 1011.54 1011.38 1011.42 1011.41 1011.27 1012.23 1012.71 1013.55 1014.26
1019.72 1019.35 1018.86 1018.32 1017.60 1016.87 1016.14 1015.39 1014.54 1013.73 1012.85 1012.91 1011.33 1012.12 1012.83 1013.41 1014.06 1013.40 1013.53 1014.08 1014.57 1015.89 1014.66 1013.61 1013.00 1012.82 1013.12 1012.91 1013.02 1013.35 1013.47 1013.79 1013.58 1013.32 1013.13 1012.41 1011.73 1011.49 1011.29 1011.28 1011.41 1011.51 1011.76 1012.48 1013.20 1014.08 1014.15
1019.38 1018.89 1018.31 1017.74 1017.05 1016.34 1015.71 1015.12 1014.46 1013.40 1012.56 1012.16 1011.33 1011.85 1012.67 1012.91 1013.31 1013.00 1013.46 1014.34 1015.28 1015.30 1014.09 1013.70 1013.16 1013.00 1013.04 1012.95 1012.69 1012.95 1012.70 1012.78 1012.77 1012.76 1012.46 1011.91 1011.58 1011.34 1011.51 1011.73 1011.42 1011.42 1011.60 1012.75 1013.77 1014.30 1014.30
1019.08 1018.37 1017.71 1017.13 1016.42 1015.68 1014.98 1014.25 1013.42 1012.75 1011.55 1010.96 1010.72 1011.44 1012.03 1012.53 1012.72 1012.85 1013.51 1014.40 1014.73 1013.81 1013.38 1012.99 1013.00 1013.09 1013.30 1013.12 1012.57 1012.57 1012.45 1012.45 1011.92 1012.10 1012.22 1012.00 1012.03 1011.56 1011.08 1010.79 1010.77 1011.39 1011.68 1012.33 1013.16 1013.72 1013.83
1018.44 1017.71 1017.12 1016.52 1015.85 1014.91 1014.23 1013.55 1012.73 1011.45 1010.21 1009.76 1010.66 1011.55 1012.03 1012.35 1012.71 1012.82 1013.50 1014.03 1013.21 1012.67 1012.29 1012.60 1012.90 1013.26 1013.41 1013.18 1013.08 1012.44 1012.37 1012.10 1011.90 1011.51 1011.87 1012.03 1012.05 1011.77 1011.28 1010.71 1010.91 1011.16 1011.78 1012.12 1012.95 1013.73 1013.94
1017.77 1017.17 1016.55 1015.87 1014.97 1014.16 1013.38 1012.94 1012.25 1010.66 1007.34 1009.20 1010.39 1011.38 1011.64 1012.11 1012.58 1013.01 1013.39 1013.02 1012.42 1011.73 1011.78 1012.15 1012.48 1012.86 1013.24 1013.16 1013.02 1012.73 1012.35 1012.08 1011.85 1011.35 1011.11 1011.64 1011.79 1012.11 1011.55 1010.92 1010.83 1010.72 1011.43 1012.25 1012.93 1014.28 1014.46
1017.25 1016.43 1015.75 1015.00 1014.34 1013.61 1012.54 1012.29 1011.67 1011.08 1010.25 1009.07 1010.44 1010.93 1011.70 1012.10 1012.55 1013.34 1012.82 1012.18 1011.41 1010.72 1010.65 1011.17 1011.74 1012.33 1012.82 1012.95 1012.76 1012.71 1012.67 1012.26 1011.98 1011.52 1011.13 1011.51 1012.08 1013.06 1012.19 1012.51 1012.39 1011.85 1012.02 1012.78 1013.64 1014.36 1014.51
1016.51 1015.88 1014.98 1014.23 1013.60 1012.97 1011.87 1011.50 1011.16 1010.79 1010.32 1010.21 1010.28 1010.87 1011.64 1012.11 1012.72 1012.76 1011.99 1011.06 1010.35 1010.29 1010.33 1010.38 1010.94 1011.69 1012.36 1012.70 1012.68 1012.63 1012.46 1012.14 1011.86 1011.84 1012.01 1012.20 1013.00 1014.13 1014.02 1013.34 1012.96 1012.78 1012.84 1013.31 1014.00 1015.10 1015.28
1015.69 1015.08 1014.26 1013.52 1012.86 1012.24 1011.51 1010.59 1010.51 1010.05 1009.68 1010.12 1010.38 1011.06 1012.02 1012.08 1012.46 1012.14 1010.93 1010.29 1010.09 1010.01 1010.05 1010.30 1010.39 1010.83 1011.70 1012.25 1012.70 1012.47 1012.19 1012.23 1012.03 1011.91 1012.22 1012.42 1013.61 1014.84 1014.76 1014.04 1013.31 1013.13 1013.03 1013.30 1013.85 1014.70 1015.51
1015.07 1014.13 1013.43 1012.66 1011.91 1011.20 1010.68 1010.39 1009.75 1009.23 1009.11 1009.93 1010.60 1011.18 1011.77 1012.21 1012.02 1011.35 1010.72 1010.27 1010.11 1009.93 1009.98 1010.12 1010.33 1010.43 1011.24 1011.95 1012.40 1012.74 1012.41 1012.23 1012.09 1012.15 1012.25 1012.51 1013.86 1014.49 1014.84 1014.37 1013.87 1013.55 1013.40 1013.63 1014.19 1015.26 1015.53
1014.22 1013.16 1012.40 1011.56 1010.76 1010.15 1009.68 1009.31 1009.07 1008.83 1009.07 1009.67 1010.58 1011.01 1010.99 1011.56 1011.86 1011.42 1010.62 1010.27 1010.25 1010.28 1010.24 1010.35 1010.51 1010.70 1011.17 1011.87 1012.42 1012.73 1012.75 1012.72 1012.49 1012.41 1012.48 1012.96 1014.43 1015.03 1015.18 1014.69 1014.20 1013.91 1013.76 1013.95 1014.47 1014.90 1015.05
1013.36 1012.51 1011.56 1010.56 1009.65 1009.09 1008.52 1007.83 1007.90 1008.19 1008.59 1009.43 1010.52 1011.23 1011.51 1011.36 1011.38 1011.44 1011.01 1010.58 1010.41 1010.80 1010.84 1010.76 1010.87 1011.07 1011.33 1011.93 1012.23 1012.47 1012.44 1012.75 1012.84 1012.91 1013.24 1013.81 1015.27 1015.62 1016.07 1015.36 1014.64 1014.16 1013.90 1013.94 1014.31 1014.51 1014.63
1012.74 1011.96 1010.96 1009.87 1008.65 1007.66 1007.00 1006.49 1006.63 1007.04 1008.69 1009.32 1010.48 1010.89 1011.33 1011.85 1011.81 1011.60 1011.05 1010.83 1010.79 1010.99 1011.59 1011.30 1011.25 1011.51 1012.01 1012.30 1012.34 1012.38 1012.43 1012.77 1013.03 1013.25 1013.78 1014.58 1015.70 1016.63 1017.14 1016.26 1015.21 1015.04 1014.12 1013.89 1013.84 1013.94 1014.24
1012.11 1011.27 1010.17 1008.82 1007.54 1005.58 1003.74 1004.16 1004.38 1006.39 1008.45 1009.16 1010.24 1011.20 1011.35 1012.33 1012.10 1011.60 1011.04 1010.95 1011.28 1011.39 1011.72 1012.11 1011.90 1011.84 1012.50 1012.34 1012.43 1012.45 1012.84 1013.27 1013.52 1013.88 1013.99 1015.02 1015.98 1016.86 1017.68 1016.61 1015.80 1014.60 1014.11 1014.11 1014.57 1014.95 1014.95
1011.59 1010.47 1008.90 1007.44 1005.23 1003.30 1002.31 1003.31 1005.25 1007.15 1008.42 1008.92 1010.61 1011.17 1011.02 1012.33 1012.44 1012.39 1011.99 1011.72 1012.10 1012.29 1012.56 1012.90 1012.93 1012.85 1012.66 1012.77 1013.39 1013.83 1014.24 1014.36 1014.51 1014.59 1014.67 1014.96 1016.10 1017.27 1017.71 1017.39 1016.13 1014.84 1014.48 1014.64 1014.69 1015.68 1015.90
1011.04 1009.65 1008.49 1007.41 1005.98 1005.03 1005.17 1005.64 1006.55 1007.55 1008.87 1010.03 1010.99 1010.97 1011.01 1011.98 1014.10 1013.78 1013.11 1012.61 1012.96 1013.32 1013.66 1013.65 1013.42 1013.12 1013.07 1013.69 1014.40 1015.03 1015.45 1015.35 1015.46 1015.26 1015.21 1015.51 1015.97 1017.22 1017.75 1017.69 1016.64 1015.32 1014.74 1014.62 1014.84 1016.03 1016.35
1011.35 1010.38 1009.57 1008.17 1007.01 1007.07 1007.21 1007.52 1008.08 1008.84 1009.42 1009.61 1010.91 1011.20 1011.28 1013.20 1014.87 1014.52 1014.00 1013.56 1013.47 1013.87 1014.48 1014.42 1014.01 1013.83 1013.75 1014.62 1015.44 1015.85 1016.08 1015.88 1016.29 1016.18 1016.23 1016.46 1016.78 1017.60 1018.10 1017.77 1016.46 1015.59 1015.24 1015.37 1016.39 1017.48 1017.15
1011.27 1010.34 1009.76 1008.95 1008.32 1008.57 1008.80 1009.00 1009.26 1009.70 1010.05 1010.21 1011.73 1011.56 1011.57 1013.79 1015.42 1015.16 1014.77 1014.43 1014.32 1014.32 1014.91 1014.96 1014.88 1014.86 1015.09 1015.51 1016.11 1016.49 1016.63 1016.58 1016.65 1016.49 1016.59 1016.84 1017.35 1017.90 1018.10 1018.01 1017.50 1016.32 1016.14 1016.57 1017.24 1017.44 1017.67
1011.16 1010.70 1010.20 1009.78 1008.87 1009.23 1009.54 1009.85 1010.16 1010.46 1010.75 1010.87 1012.01 1011.94 1011.99 1013.14 1015.71 1015.66 1015.54 1015.37 1015.19 1015.06 1015.03 1015.33 1015.42 1015.24 1015.43 1016.15 1016.65 1017.01 1017.21 1017.19 1017.15 1017.31 1016.85 1016.92 1016.83 1017.28 1017.71 1017.55 1017.34 1017.33 1017.39 1017.48 1017.47 1017.78 1018.22
Wind_Speed
24 25 25 25 26 26 24 23 22 22 22 20 17 15 13 12 11 10 10 11 11 12 7 10 12 3 2 1 9 5 6 4 5 4 2 2 5 4 8 2 9 20 11 12 11 8 5
26 26 25 25 25 26 28 24 24 23 23 21 17 14 13 12 11 8 9 12 11 11 5 10 10 4 2 4 4 5 5 3 4 4 4 4 2 3 5 11 10 6 16 16 10 12 9
26 27 26 26 26 26 25 27 24 26 25 23 19 13 13 8 10 10 8 10 9 8 6 9 10 3 2 12 2 2 2 4 4 5 5 3 4 1 3 5 14 18 9 15 12 7 8
23 27 28 28 27 26 26 23 24 27 26 25 16 12 11 8 8 7 10 8 7 7 9 9 6 2 7 5 4 4 5 5 7 5 5 7 3 4 5 5 7 18 12 12 11 7 6
25 25 27 26 26 26 26 24 25 25 28 28 13 13 8 10 8 7 8 6 9 9 6 6 1 3 8 6 3 6 6 5 4 3 5 8 4 5 6 4 10 13 5 11 5 11 2
25 24 27 27 26 27 27 27 28 30 29 29 15 11 9 8 7 4 6 8 5 0 2 1 2 2 5 3 3 2 3 2 2 3 3 4 3 1 5 5 6 11 6 6 9 5 9
26 27 26 27 25 26 28 28 28 29 27 29 15 13 8 8 5 4 2 2 4 2 3 8 5 3 2 2 2 3 3 4 2 1 4 4 5 6 9 6 4 11 5 11 4 5 9
26 28 29 27 27 26 27 30 29 30 29 25 16 12 11 8 6 3 5 3 3 2 4 9 7 7 3 1 3 2 3 3 3 4 3 2 8 7 9 9 2 13 7 6 9 6 7
26 27 30 29 29 27 29 29 30 31 31 24 16 12 11 9 5 3 4 6 5 4 1 4 5 4 3 5 2 4 3 4 3 6 9 7 4 6 7 5 5 2 6 4 7 8 6
30 31 31 31 31 31 31 30 30 29 29 27 16 14 12 10 2 4 3 5 4 3 5 3 2 3 3 2 3 3 1 2 4 9 5 7 7 10 10 4 5 4 4 10 16 11 2
29 31 30 32 30 31 32 32 32 32 27 35 20 18 16 14 3 4 3 5 7 4 3 3 3 2 4 4 2 1 2 2 8 6 3 3 4 11 12 4 4 3 13 15 16 8 1
27 28 28 28 30 30 31 31 32 34 26 34 18 17 15 8 1 2 7 6 5 7 6 1 3 2 3 3 3 6 5 4 5 5 6 6 2 5 2 5 7 1 15 12 7 3 1
27 28 28 29 30 29 31 27 31 31 31 33 18 17 13 6 5 7 6 4 6 5 2 4 3 2 1 2 2 4 1 2 2 1 2 3 2 4 9 6 8 9 5 4 3 3 3
29 29 29 30 30 30 30 31 27 33 28 36 20 17 11 6 4 8 4 4 4 5 4 2 3 2 1 3 3 2 1 4 2 2 3 2 3 2 1 2 7 6 4 3 4 4 3
29 29 30 30 32 30 31 32 32 34 40 12 17 4 4 3 6 3 4 3 8 7 6 6 2 4 4 2 2 5 1 3 4 3 3 2 4 4 3 1 2 1 4 2 7 3 5
30 30 31 30 32 31 31 31 31 34 8 29 6 5 3 8 5 4 2 3 4 3 6 4 3 3 3 2 2 3 3 2 4 2 2 3 7 4 4 2 6 5 3 4 5 4 2
31 31 31 32 30 30 30 28 27 26 7 23 4 5 3 6 3 1 4 6 4 4 5 6 4 4 2 3 2 0 2 1 3 6 5 3 5 4 4 6 3 6 4 5 5 3 4
31 31 33 31 29 28 30 29 26 25 23 4 3 3 7 4 4 3 4 6 5 4 3 1 5 3 5 5 1 2 1 2 6 2 3 2 5 5 1 2 2 1 1 3 5 3 2
32 31 32 31 29 28 28 25 27 25 16 3 3 3 2 2 4 4 3 3 3 3 3 3 3 4 3 5 3 2 2 2 6 4 2 1 3 4 8 6 3 2 2 3 5 3 1
33 31 31 31 28 26 23 26 26 28 30 3 3 5 3 2 2 3 3 4 4 2 3 2 2 3 4 3 0 3 1 3 5 4 5 3 4 5 7 4 1 2 3 4 4 4 2
32 32 32 31 29 25 27 26 24 27 28 4 2 2 2 7 6 3 1 6 5 4 2 0 2 4 4 3 3 3 2 1 3 6 4 4 4 4 4 5 2 1 2 4 3 4 4
32 33 33 32 30 30 27 28 22 14 31 3 3 3 2 3 5 5 0 5 4 4 2 1 5 2 2 4 3 5 5 2 1 5 3 4 1 3 4 5 4 2 1 4 4 3 2
32 32 33 31 31 32 30 26 20 19 21 2 3 2 4 4 3 6 3 5 6 8 3 2 6 5 5 2 1 2 5 5 3 3 2 4 4 4 2 4 2 4 3 3 4 4 6
30 31 31 29 32 31 25 13 23 35 8 3 3 1 3 3 3 5 5 3 9 3 6 3 3 5 3 2 2 4 9 8 8 6 3 3 3 3 2 3 1 4 2 4 2 3 1
31 31 29 32 35 33 6 16 36 24 15 6 3 1 3 4 2 4 5 6 8 5 5 4 4 1 3 4 5 5 5 5 5 5 6 4 4 4 4 2 5 2 3 4 4 3 1
30 31 31 34 33 17 22 24 24 21 17 4 2 0 2 7 2 3 3 4 5 4 4 3 3 0 4 4 3 3 3 1 2 5 5 5 6 5 1 3 5 3 0 3 2 4 3
29 28 27 31 10 17 17 17 15 12 14 4 3 4 3 6 3 4 3 3 3 5 4 1 0 3 3 2 3 2 1 3 3 5 2 2 2 3 1 2 7 3 1 3 4 5 3
26 26 25 28 16 16 14 12 12 12 10 5 1 4 3 5 3 4 5 3 3 3 5 3 4 3 3 4 3 2 2 3 2 3 4 5 5 3 2 1 7 4 1 5 3 2 4
24 22 23 24 17 18 16 12 9 5 7 5 2 3 4 7 4 0 2 2 3 2 4 3 2 2 3 5 1 3 2 1 3 2 1 2 5 4 7 5 1 3 2 2 1 3 2
Wind_Direction
344 342 345 341 345 343 344 311 291 271 255 245 254 262 276 284 287 286 297 295 293 292 302 308 309 282 53 248 251 258 209 220 121 148 212 209 206 184 224 192 241 235 255 247 240 234 169
339 336 334 337 338 337 338 343 336 299 278 242 239 252 255 269 271 270 290 293 286 290 312 307 303 136 116 268 250 268 200 217 210 175 187 187 207 276 264 222 259 250 229 255 248 239 209
343 337 337 333 330 333 335 340 342 344 318 243 236 229 251 262 267 282 287 292 293 303 300 301 295 190 215 246 236 45 350 233 215 194 177 187 168 165 204 251 241 259 207 228 245 255 253
342 339 337 333 332 325 328 329 333 332 331 309 232 232 248 260 259 258 291 292 303 305 294 275 284 111 244 250 238 259 233 253 245 225 192 151 163 221 234 327 272 199 226 192 219 220 244
340 345 341 331 331 330 323 327 332 328 325 321 210 224 212 249 258 265 285 286 295 298 274 241 119 145 264 307 191 242 202 226 239 150 129 147 97 258 184 210 201 169 209 189 162 184 223
346 344 343 336 332 333 330 333 332 332 331 328 210 196 213 248 254 262 273 303 289 270 316 65 253 242 266 222 207 239 195 116 42 140 114 182 226 283 190 244 155 166 189 174 175 192 203
347 342 345 344 336 335 330 326 328 331 326 329 216 179 191 228 233 226 26 352 62 32 259 195 195 245 239 244 242 207 136 92 36 236 216 189 238 245 194 210 274 140 146 163 117 179 138
346 341 343 342 339 336 333 326 326 325 314 315 208 182 178 208 209 193 112 229 180 153 286 227 245 254 288 166 356 146 110 140 186 212 203 223 259 237 172 239 28 153 152 149 101 51 185
343 343 339 340 339 336 333 332 329 324 324 318 191 177 186 175 200 160 165 235 100 111 109 282 193 214 205 171 213 257 153 164 223 240 241 229 272 178 166 152 145 60 157 142 143 178 301
341 340 340 339 337 337 333 329 326 323 319 308 198 176 172 154 197 166 191 230 146 103 71 254 234 241 128 159 249 177 171 191 220 236 251 274 272 200 171 155 181 157 144 114 126 133 174
338 335 335 331 330 330 325 327 320 325 320 321 188 172 171 160 175 176 152 126 115 60 60 237 201 152 154 213 154 206 48 102 238 204 196 207 211 184 162 175 166 246 150 108 100 85 143
327 327 326 325 323 325 322 327 324 315 313 324 174 169 169 177 239 221 118 118 71 48 266 187 157 211 194 226 186 158 213 178 236 204 203 264 354 151 165 139 178 317 98 71 69 88 62
322 323 322 321 323 321 320 327 317 314 311 317 178 173 173 151 211 154 126 89 64 132 255 190 193 172 110 273 278 192 249 229 231 233 62 48 69 99 115 176 213 127 118 101 129 155 156
321 321 320 319 317 316 317 323 315 317 309 306 171 168 179 207 169 141 111 86 104 225 183 95 112 108 97 350 277 267 101 331 9 127 72 91 121 5 291 5 133 147 125 144 121 154 131
317 319 317 316 312 313 317 320 329 315 308 242 155 132 123 207 171 97 108 131 199 208 140 135 75 85 329 313 232 352 41 318 37 5 93 97 75 271 250 117 99 268 59 178 119 60 81
321 320 315 314 311 314 315 320 327 323 253 146 146 151 150 154 149 76 90 200 220 198 115 103 176 165 173 248 352 336 2 346 357 19 210 154 90 16 327 356 31 93 165 52 13 118 137
320 317 316 313 315 313 313 317 325 326 306 135 138 130 141 150 94 62 206 209 215 216 150 152 178 136 177 179 248 202 326 328 14 333 26 51 75 309 30 20 23 7 27 43 107 77 145
318 313 313 313 313 312 311 314 321 317 312 197 139 140 160 131 151 208 191 193 186 162 164 194 117 112 160 176 214 356 55 298 347 321 51 337 106 64 89 293 278 215 147 113 110 267 44
318 317 314 312 310 307 308 312 318 307 199 138 118 96 154 95 172 219 228 121 162 121 152 175 170 160 176 168 86 358 13 355 346 39 73 80 28 69 353 359 6 57 28 82 95 77 12
315 315 316 311 310 305 310 314 309 310 172 121 133 129 132 204 249 191 149 142 140 46 127 114 146 102 121 112 21 139 317 343 357 35 42 98 88 137 168 196 150 127 130 91 89 81 174
314 317 317 315 311 309 312 303 304 306 181 145 120 213 177 177 215 188 83 146 136 121 18 165 68 100 158 121 116 133 155 95 5 351 29 78 98 76 58 39 75 104 145 154 112 175 133
319 319 319 320 314 313 307 299 292 278 180 204 129 154 54 301 146 130 6 181 128 102 68 237 135 69 88 136 164 175 123 130 197 10 50 14 87 90 31 24 32 136 114 156 142 178 154
319 320 321 316 311 309 296 286 264 194 174 128 96 301 121 145 115 141 207 162 154 123 71 24 151 104 77 96 110 357 88 94 136 130 78 62 107 62 339 326 346 355 242 225 184 174 160
323 324 320 321 316 306 292 223 160 157 118 136 104 166 122 150 119 187 143 130 143 140 131 19 38 92 181 133 123 55 55 62 57 19 80 100 80 79 190 358 40 244 228 243 114 28 26
327 327 331 332 336 334 66 140 141 103 93 76 26 224 140 106 121 64 103 108 85 57 65 77 14 330 140 65 62 48 358 21 5 36 25 74 100 76 110 220 294 339 172 139 176 216 276
334 337 347 339 339 99 107 117 127 87 65 105 138 250 95 120 355 325 84 110 121 97 29 35 12 23 55 78 82 113 196 165 350 360 27 61 80 100 85 117 230 248 56 11 125 289 147
335 338 347 344 83 88 107 122 120 112 48 70 47 25 76 99 359 3 89 125 98 89 97 111 100 37 33 71 81 121 218 158 156 162 178 50 50 135 151 246 285 267 288 338 103 251 141
337 341 348 346 106 107 112 115 116 89 49 59 353 344 105 95 27 2 7 49 51 77 136 207 80 344 48 72 114 178 129 210 103 165 176 162 150 196 143 232 282 355 360 167 185 25 123
337 344 347 342 107 112 103 97 129 103 87 80 43 348 18 76 127 40 101 60 35 343 126 28 156 124 170 96 98 120 135 111 143 220 25 203 179 185 178 222 343 344 30 12 133 127 120